Flag for Brazil Weather past 2 weeks in Florianópolis, Santa Catarina, Brazil

Now
70 °F

Light rain. Partly sunny.


Feels Like: 70 °F
Forecast: 66 / 70 °F
Wind: 9 mph from Southwest

Location: Florianopolis Aeroporto

Current Time: May 27, 2015 at 3:40:22 PM

Latest Report: May 27, 2015 at 3:00 PM


Visibility: 2 mi

Pressure: 29.83 "Hg

Humidity: 94%

Dew point: 68 °F

Location of FlorianópolisLocation

Historic Weather in Florianópolis — Graph

°F

Florianópolis temperature yesterday

Maximum temperature yesterday: 72 °F (at 12:00 PM)
Minimum temperature yesterday: 68 °F (at 3:00 AM)
Average temperature yesterday: 69 °F

Past Weeks' High & Low Weather Summary

 TemperatureHumidityPressure
High79 °F (May 23, 1:00 PM)94% (May 15, 12:00 AM)30.30 "Hg (May 15, 12:00 AM)
Low61 °F (May 13, 4:00 AM)61% (May 13, 1:00 PM)29.77 "Hg (May 24, 4:00 AM)
Average70 °F86%30.14 "Hg
* Reported May 12 2:00 PM — May 27 2:00 PM, Florianópolis, Weather by CustomWeather, © 2015

Note: Actual official high and low records may vary slightly from our data, if they occured in-between our weather recording intervals... More about our weather records

Advertising

Florianópolis weather history for previous 24 hours

 ConditionsComfort  
Time TempWeatherWind HumidityBarometerVisibility
2:00 PM
Wed, May 27
70 °FLight rain. Mostly cloudy.8 mph94%29.86 "Hg2 mi
1:00 PM70 °FLight rain. Mostly cloudy.8 mph94%29.92 "Hg2 mi
12:00 PM70 °FLight rain. Mostly cloudy.5 mph94%29.95 "Hg2 mi
11:00 AM70 °FRain. Mostly cloudy.6 mph94%29.98 "Hg2 mi
10:00 AM70 °FLight rain. Mostly cloudy.13 mph88%29.98 "Hg2 mi
9:00 AM70 °FLight rain. Mostly cloudy.9 mph88%29.98 "Hg2 mi
8:00 AM68 °FLight rain. Mostly cloudy.7 mph94%29.98 "Hg2 mi
7:00 AM68 °FLight rain. Partly sunny.8 mph94%29.98 "Hg2 mi
6:00 AM68 °FRain. Mostly cloudy.10 mph94%29.98 "Hg2 mi
5:00 AM68 °FRain. Mostly cloudy.10 mph94%29.98 "Hg2 mi
4:00 AM68 °FRain. Mostly cloudy.14 mph94%30.01 "Hg2 mi
3:00 AM68 °FRain. Mostly cloudy.8 mph94%30.04 "Hg2 mi
2:00 AM68 °FRain. Mostly cloudy.9 mph94%30.04 "Hg2 mi
1:00 AM68 °FRain. Mostly cloudy.9 mph94%30.07 "Hg2 mi
12:00 AM68 °FRain. Mostly cloudy.9 mph94%30.07 "Hg2 mi
11:00 PM
Tue, May 26
68 °FRain. Mostly cloudy.6 mph94%30.09 "Hg2 mi
10:00 PM70 °FRain. Mostly cloudy.7 mph94%30.09 "Hg2 mi
9:00 PM68 °FHeavy rain. Mostly cloudy.6 mph94%N/A2 mi
8:00 PM68 °FRain. Mostly cloudy.9 mph94%30.09 "Hg2 mi
7:00 PM68 °FRain. Mostly cloudy.6 mph94%30.07 "Hg2 mi
6:00 PM68 °FLight rain. Mostly cloudy.6 mph94%N/A2 mi
5:00 PM68 °FLight rain. Mostly cloudy.2 mph94%N/A2 mi
4:00 PM72 °FLight rain. More clouds than sun.2 mph83%N/A5 mi
3:00 PM72 °FMore clouds than sun.5 mph83%30.07 "HgN/A
Weather by CustomWeather, © 2015

See weather overviewHow to use our weather pages